Location: Ottawa
(45.4170°N, 75.7000°W)
Time: 22:24:49
(UTC-04:00)

ISS - Pass Details

Date: 20 May 2021
Orbit: 417 x 422 km, 51.6° (Epoch: 13 June)

Event Time Altitude Azimuth Distance (km) Brightness Sun altitude
Rises 23:55:14 0° 294° (WNW) 2,368 0.6 -23.0°
Reaches altitude 10° 23:57:30 10° 306° (NW) 1,504 -0.3 -23.1°
Maximum altitude 00:00:32 30° 9° (N) 789 -1.8 -23.2°
Enters shadow 00:01:55 22° 51° (NE) 983 -1.7 -23.3°
